VJC820 VVDN-VVTS

Flight info

Callsign VJC820
Flight time N/A
Altitude 34000
Route SADIN1A SADIN Q1 DOVIN DOVIN5P
Aircraft A321/M-SDE3FGHIRWY/LB1

Departure

Time 2026-05-07 12:56
Airport Da Nang International Airport (VVDN)

Arrival

Time N/A
Airport Tan Son Nhat International Airport (VVTS)
Time Latitude Longitude Altitude Speed Heading
2026-05-07 12:27 16.05409 108.20169 35 ft 0 kts 83°
2026-05-07 12:44 16.05406 108.20144 34 ft 4 kts 83°
2026-05-07 12:44 16.05402 108.20116 34 ft 4 kts 82°
2026-05-07 12:45 16.05398 108.20089 34 ft 4 kts 82°
2026-05-07 12:45 16.05395 108.20064 34 ft 4 kts 86°
2026-05-07 12:45 16.05399 108.20041 33 ft 4 kts 143°
2026-05-07 12:45 16.05422 108.20032 32 ft 2 kts 171°
2026-05-07 12:46 16.05428 108.20031 33 ft 2 kts 171°
2026-05-07 12:47 16.05431 108.20031 32 ft 0 kts 161°
2026-05-07 12:48 16.05438 108.20029 31 ft 0 kts 137°
2026-05-07 12:48 16.05446 108.20017 34 ft 2 kts 104°
2026-05-07 12:48 16.05449 108.20005 34 ft 1 kts 91°
2026-05-07 12:49 16.05449 108.20001 34 ft 0 kts 88°
2026-05-07 12:49 16.05448 108.20021 34 ft 0 kts 93°
2026-05-07 12:49 16.05448 108.20027 33 ft 1 kts 94°
2026-05-07 12:49 16.05448 108.20024 33 ft 0 kts 94°
2026-05-07 12:50 16.05446 108.20026 33 ft 1 kts 119°
2026-05-07 12:50 16.05403 108.20032 32 ft 12 kts 173°
2026-05-07 12:50 16.05288 108.20051 34 ft 21 kts 171°
2026-05-07 12:50 16.05117 108.20076 34 ft 26 kts 172°
2026-05-07 12:51 16.04940 108.20101 33 ft 25 kts 172°
2026-05-07 12:51 16.04777 108.20124 33 ft 23 kts 172°
2026-05-07 12:51 16.04617 108.20149 34 ft 22 kts 171°
2026-05-07 12:51 16.04464 108.20173 33 ft 22 kts 172°
2026-05-07 12:52 16.04320 108.20191 34 ft 20 kts 172°
2026-05-07 12:52 16.04184 108.20213 34 ft 19 kts 171°
2026-05-07 12:52 16.04055 108.20232 34 ft 18 kts 172°
2026-05-07 12:52 16.03932 108.20249 35 ft 17 kts 172°
2026-05-07 12:53 16.03816 108.20265 35 ft 17 kts 172°
2026-05-07 12:53 16.03692 108.20283 34 ft 19 kts 172°
2026-05-07 12:53 16.03557 108.20302 34 ft 20 kts 172°
2026-05-07 12:53 16.03412 108.20322 34 ft 22 kts 173°
2026-05-07 12:54 16.03251 108.20345 33 ft 24 kts 172°
2026-05-07 12:54 16.03117 108.20360 33 ft 18 kts 189°
2026-05-07 12:54 16.03077 108.20257 31 ft 14 kts 291°
2026-05-07 12:54 16.03154 108.20223 31 ft 8 kts 348°
2026-05-07 12:55 16.03164 108.20221 32 ft 0 kts 349°
2026-05-07 12:55 16.03191 108.20216 32 ft 21 kts 351°
2026-05-07 12:55 16.03586 108.20158 34 ft 90 kts 352°
2026-05-07 12:56 16.04393 108.20042 33 ft 142 kts 352°
2026-05-07 12:56 16.05510 108.19879 35 ft 181 kts 352°
2026-05-07 12:56 16.06805 108.19678 402 ft 185 kts 351°
2026-05-07 12:56 16.08039 108.19475 1146 ft 175 kts 351°
2026-05-07 12:57 16.09221 108.19276 1757 ft 169 kts 352°
2026-05-07 12:57 16.10372 108.19080 2312 ft 166 kts 352°
2026-05-07 12:57 16.11551 108.18878 2547 ft 181 kts 352°
2026-05-07 12:57 16.12865 108.18665 2687 ft 200 kts 353°
2026-05-07 12:58 16.14308 108.18437 2813 ft 219 kts 353°
2026-05-07 12:58 16.15871 108.18189 2947 ft 236 kts 353°
2026-05-07 12:58 16.17572 108.17975 3031 ft 259 kts
2026-05-07 12:58 16.19259 108.18580 3345 ft 267 kts 41°
2026-05-07 12:59 16.20306 108.20136 3926 ft 266 kts 76°
2026-05-07 12:59 16.20303 108.22036 4555 ft 268 kts 109°
2026-05-07 12:59 16.19248 108.23623 5146 ft 275 kts 142°
2026-05-07 12:59 16.17466 108.24353 5740 ft 282 kts 176°
2026-05-07 13:00 16.15518 108.24060 6324 ft 288 kts 198°
2026-05-07 13:00 16.13629 108.23319 6885 ft 292 kts 197°
2026-05-07 13:00 16.11625 108.23030 7483 ft 292 kts 181°
2026-05-07 13:00 16.09591 108.22939 8126 ft 293 kts 181°
2026-05-07 13:01 16.07734 108.22859 8670 ft 295 kts 181°
2026-05-07 13:01 16.07604 108.22853 8705 ft 296 kts 181°
2026-05-07 13:02 16.05565 108.22763 9295 ft 298 kts 181°
2026-05-07 13:02 16.03489 108.22665 9900 ft 299 kts 181°
2026-05-07 13:02 16.01381 108.22562 10199 ft 312 kts 181°
2026-05-07 13:02 15.99141 108.22450 10328 ft 331 kts 182°
2026-05-07 13:03 15.96783 108.22326 10444 ft 348 kts 181°
2026-05-07 13:03 15.94313 108.22197 10561 ft 364 kts 182°
2026-05-07 13:03 15.91745 108.22060 10864 ft 372 kts 182°
2026-05-07 13:03 15.89144 108.21922 11342 ft 376 kts 182°
2026-05-07 13:04 15.86527 108.21784 11840 ft 378 kts 181°
2026-05-07 13:04 15.83895 108.21646 12361 ft 380 kts 181°
2026-05-07 13:04 15.81241 108.21509 12868 ft 383 kts 181°
2026-05-07 13:04 15.78578 108.21373 13352 ft 385 kts 181°
2026-05-07 13:05 15.75927 108.21238 13815 ft 388 kts 181°
2026-05-07 13:05 15.73221 108.21099 14259 ft 390 kts 181°
2026-05-07 13:05 15.70512 108.20958 14695 ft 391 kts 181°
2026-05-07 13:05 15.67783 108.20814 15105 ft 394 kts 181°
2026-05-07 13:06 15.65039 108.20671 15491 ft 396 kts 181°
2026-05-07 13:06 15.62275 108.20527 15878 ft 399 kts 182°
2026-05-07 13:06 15.59495 108.20383 16252 ft 401 kts 181°
2026-05-07 13:06 15.56700 108.20240 16668 ft 403 kts 181°
2026-05-07 13:07 15.53894 108.20095 17021 ft 406 kts 182°
2026-05-07 13:07 15.51095 108.19951 17377 ft 408 kts 182°
2026-05-07 13:07 15.48249 108.19806 17741 ft 411 kts 182°
2026-05-07 13:07 15.45389 108.19658 18096 ft 413 kts 182°
2026-05-07 13:08 15.42519 108.19508 18418 ft 415 kts 182°
2026-05-07 13:08 15.39625 108.19360 18711 ft 417 kts 182°
2026-05-07 13:08 15.36709 108.19211 19006 ft 420 kts 182°
2026-05-07 13:08 15.33784 108.19062 19287 ft 422 kts 182°
2026-05-07 13:09 15.30839 108.18908 19572 ft 425 kts 182°
2026-05-07 13:09 15.27888 108.18749 19862 ft 427 kts 182°
2026-05-07 13:09 15.24910 108.18590 20120 ft 429 kts 182°
2026-05-07 13:09 15.21918 108.18434 20373 ft 432 kts 181°
2026-05-07 13:10 15.18947 108.18281 20626 ft 435 kts 181°
2026-05-07 13:10 15.15911 108.18125 20905 ft 437 kts 182°
2026-05-07 13:10 15.12869 108.17972 21177 ft 439 kts 182°
2026-05-07 13:10 15.09804 108.17821 21440 ft 442 kts 182°
2026-05-07 13:11 15.06721 108.17674 21679 ft 445 kts 181°
2026-05-07 13:11 15.03626 108.17568 21921 ft 447 kts 181°
2026-05-07 13:11 15.01564 108.17520 22106 ft 448 kts 180°
2026-05-07 13:11 14.97375 108.17449 22426 ft 452 kts 180°
2026-05-07 13:12 14.94259 108.17405 22698 ft 454 kts 180°
2026-05-07 13:12 14.91096 108.17353 22910 ft 457 kts 180°
2026-05-07 13:12 14.87915 108.17292 23174 ft 458 kts 180°
2026-05-07 13:12 14.85762 108.17245 23357 ft 459 kts 180°
2026-05-07 13:13 14.82597 108.17174 23546 ft 462 kts 181°
2026-05-07 13:13 14.79383 108.17096 23771 ft 463 kts 181°
2026-05-07 13:13 14.76153 108.17015 24034 ft 463 kts 181°